This is the latest recevied weather packets stored in our database for station/object DL6MAA-11. If no packets are shown the sender has not sent any weather packets the latest 10 day(s).
| Time | Temp. | Humidity | Pressure | Rain* | Wind** | Luminosity | Snow |
|---|---|---|---|---|---|---|---|
| 1778060215 | 15.56° C | 62% | 1004.1 hPa | 0 mm | - | 246 W/m² | - |
| 1778059917 | 15.56° C | 62% | 1004.1 hPa | 0 mm | - | 213 W/m² | - |
| 1778059620 | 15.56° C | 64% | 1003.4 hPa | 0 mm | - | 197 W/m² | - |
| 1778059311 | 15.56° C | 64% | 1003.4 hPa | 0 mm | - | 200 W/m² | - |
| 1778059017 | 15° C | 64% | 1003.4 hPa | 0 mm | - | 181 W/m² | - |
| 1778058725 | 15° C | 65% | 1004.1 hPa | 0 mm | - | 179 W/m² | - |
| 1778058408 | 15° C | 63% | 1004.1 hPa | 0 mm | - | 162 W/m² | - |
| 1778058115 | 15° C | 61% | 1004.1 hPa | 0 mm | - | 178 W/m² | - |
| 1778057811 | 15° C | 64% | 1004.1 hPa | 0 mm | - | 199 W/m² | - |
| 1778057517 | 14.44° C | 63% | 1004.1 hPa | 0 mm | - | 190 W/m² | - |
| 1778057224 | 15° C | 64% | 1004.1 hPa | 0 mm | - | 185 W/m² | - |
| 1778056905 | 14.44° C | 65% | 1004.3 hPa | 0 mm | - | 199 W/m² | - |
| 1778056610 | 14.44° C | 63% | 1004.3 hPa | 0 mm | - | 204 W/m² | - |
| 1778056319 | 14.44° C | 64% | 1004.3 hPa | 0 mm | - | 207 W/m² | - |
| 1778056022 | 14.44° C | 65% | 1003.4 hPa | 0 mm | - | 192 W/m² | - |
| 1778055718 | 14.44° C | 64% | 1003.4 hPa | 0 mm | - | 214 W/m² | - |
| 1778055416 | 14.44° C | 66% | 1003.4 hPa | 0 mm | - | 214 W/m² | - |
| 1778055121 | 13.89° C | 65% | 1004 hPa | 0 mm | - | 204 W/m² | - |
| 1778054810 | 13.89° C | 66% | 1004 hPa | 0 mm | - | 206 W/m² | - |
| 1778054514 | 13.89° C | 67% | 1004 hPa | 0 mm | - | 190 W/m² | - |
| 1778054218 | 13.89° C | 67% | 1004.1 hPa | 0 mm | - | 167 W/m² | - |
| 1778053920 | 13.89° C | 68% | 1004.1 hPa | 0 mm | - | 153 W/m² | - |
| 1778053620 | 13.33° C | 68% | 1004.1 hPa | 0 mm | - | 139 W/m² | - |
| 1778053305 | 13.33° C | 69% | 1004.2 hPa | 0 mm | - | 125 W/m² | - |
| 1778053014 | 13.33° C | 70% | 1004.2 hPa | 0 mm | - | 132 W/m² | - |
* Rain since midnight (hover to see other rain measurements)
** Current wind speed in m/s (hover to see current wind gust speed)